Nebraska City, NE

4:47 AM CDT on July 24, 2017 (GMT -0500)
Nebraska City Municipal

Weather History for KAFK - February, 2013

Change the Weather History Date:

Wednesday, February 6, 2013

  Actual Average (KSDA) Record (KSDA)
Temperature  
Mean Temperature 44 °F -  
Max Temperature 59 °F 32 °F 66 °F (2009)
Min Temperature 30 °F 11 °F -16 °F (1982)
Degree Days  
Heating Degree Days 20    
Moisture  
Dew Point 32 °F    
Average Humidity 67    
Maximum Humidity 83    
Minimum Humidity 37    
Precipitation  
Precipitation 0.00 in - - ()
Sea Level Pressure  
Sea Level Pressure 29.94 in    
Wind  
Wind Speed 5 mph (South)    
Max Wind Speed 21 mph    
Max Gust Speed 26 mph    
Visibility 10 miles    
Events Rain    
Averages and records for this station are not official NWS values.
T = Trace of Precipitation, MM = Missing Value Source: NWS Daily Summary

Daily Weather History Graph

Daily Weather History Graph

Search for Another Location

Airport or City:

Trip Planner

Search our weather history database for the weather conditions in past years. The results will help you decide how hot, cold, wet, or windy it might be!

Date:

Astronomy

Feb. 06, 2013 Rise Set
Actual Time 7:27 AM CST 5:47 PM CST
Civil Twilight 6:59 AM CST 6:16 PM CST
Nautical Twilight 6:26 AM CST 6:48 PM CST
Astronomical Twilight 5:54 AM CST 7:20 PM CST
Moon 4:12 AM CST (2/6) 2:06 PM CST (2/6)
Length of Visible Light 11h 17m
Length of Day
10h 20m
Waning Crescent, 17% of the Moon is Illuminated
Feb 6
Waning Crescent
Feb 10
New
Feb 17
First Quarter
Feb 25
Full
Mar 4
Last Quarter

Hourly Weather History & Observations

Time (CST) Temp. Windchill Dew Point Humidity Pressure Visibility Wind Dir Wind Speed Gust Speed Precip Events Conditions
12:15 AM 33.1 °F - 26.6 °F 77% 30.08 in 10.0 mi Calm Calm - N/A   Scattered Clouds
12:35 AM 32.2 °F - 26.4 °F 79% 30.08 in 10.0 mi Calm Calm - N/A   Clear
12:55 AM 31.5 °F - 25.5 °F 79% 30.08 in 10.0 mi Calm Calm - N/A   Clear
1:15 AM 31.6 °F - 25.9 °F 79% 30.07 in 10.0 mi Calm Calm - N/A   Clear
1:35 AM 31.6 °F - 26.4 °F 81% 30.06 in 10.0 mi Calm Calm - N/A   Scattered Clouds
1:55 AM 32.0 °F - 26.6 °F 80% 30.05 in 10.0 mi Calm Calm - N/A   Scattered Clouds
2:15 AM 32.0 °F - 26.2 °F 79% 30.06 in 10.0 mi Calm Calm - N/A   Scattered Clouds
2:35 AM 32.0 °F - 26.4 °F 80% 30.06 in 10.0 mi Calm Calm - N/A   Clear
2:55 AM 31.6 °F - 26.4 °F 81% 30.05 in 10.0 mi Calm Calm - N/A   Clear
3:15 AM 32.0 °F - 26.4 °F 80% 30.04 in 10.0 mi Calm Calm - N/A   Clear
3:35 AM 31.1 °F - 25.7 °F 80% 30.04 in 10.0 mi Calm Calm - N/A   Clear
3:55 AM 30.9 °F - 26.2 °F 83% 30.03 in 10.0 mi Calm Calm - N/A   Clear
4:15 AM 32.0 °F - 27.1 °F 82% 30.02 in 10.0 mi Calm Calm - N/A   Clear
4:35 AM 30.9 °F - 26.2 °F 83% 30.02 in 10.0 mi Calm Calm - N/A   Clear
4:55 AM 31.1 °F - 26.6 °F 83% 30.02 in 10.0 mi Calm Calm - N/A   Clear
5:15 AM 31.1 °F - 26.6 °F 83% 30.03 in 10.0 mi Calm Calm - N/A   Clear
5:35 AM 32.0 °F 23.6 °F 27.3 °F 83% 30.02 in 10.0 mi South 10.4 mph - N/A   Clear
6:15 AM 32.0 °F 24.2 °F 27.5 °F 83% 30.02 in 10.0 mi South 9.2 mph - N/A   Clear
6:35 AM 32.2 °F 23.8 °F 27.5 °F 83% 30.02 in 10.0 mi South 10.4 mph - N/A   Clear
6:55 AM 32.2 °F 23.2 °F 27.5 °F 83% 30.01 in 10.0 mi South 11.5 mph - N/A   Clear
7:15 AM 32.5 °F 23.7 °F 27.5 °F 82% 30.01 in 10.0 mi South 11.5 mph - N/A   Clear
7:35 AM 32.2 °F 23.8 °F 27.5 °F 83% 30.01 in 10.0 mi South 10.4 mph - N/A   Clear
7:55 AM 33.1 °F 22.6 °F 28.0 °F 82% 30.01 in 10.0 mi South 16.1 mph - N/A   Clear
8:15 AM 34.2 °F 25.2 °F 28.4 °F 79% 30.00 in 10.0 mi South 12.7 mph - N/A   Clear
8:35 AM 35.2 °F 26.6 °F 28.9 °F 78% 30.01 in 10.0 mi South 12.7 mph - N/A   Clear
8:55 AM 36.5 °F 27.8 °F 29.3 °F 75% 30.01 in 10.0 mi South 13.8 mph - N/A   Clear
9:15 AM 37.8 °F 28.6 °F 29.7 °F 73% 30.01 in 10.0 mi South 16.1 mph 19.6 mph N/A   Clear
9:35 AM 39.4 °F 30.4 °F 30.0 °F 69% 30.00 in 10.0 mi South 17.3 mph - N/A   Clear
9:55 AM 41.4 °F 33.0 °F 30.4 °F 65% 30.01 in 10.0 mi South 17.3 mph - N/A   Clear
10:35 AM 44.4 °F 36.6 °F 30.9 °F 59% 30.00 in 10.0 mi South 18.4 mph 23.0 mph N/A   Clear
10:55 AM 47.1 °F - 31.6 °F 55% 29.99 in 10.0 mi South 20.7 mph 24.2 mph N/A   Clear
11:15 AM 46.2 °F 39.0 °F 31.3 °F 56% 29.98 in 10.0 mi South 18.4 mph 26.5 mph N/A   Clear
11:35 AM 46.6 °F - 31.5 °F 56% 29.97 in 10.0 mi South 17.3 mph 24.2 mph N/A   Clear
11:55 AM 47.1 °F - 32.0 °F 56% 29.96 in 10.0 mi South 15.0 mph - N/A   Clear
12:15 PM 48.2 °F - 32.2 °F 54% 29.95 in 10.0 mi South 17.3 mph 21.9 mph N/A   Clear
12:35 PM 48.9 °F - 32.5 °F 53% 29.94 in 10.0 mi South 12.7 mph 20.7 mph N/A   Clear
12:55 PM 50.5 °F - 33.6 °F 52% 29.93 in 10.0 mi South 17.3 mph 21.9 mph N/A   Clear
1:15 PM 52.9 °F - 33.4 °F 48% 29.92 in 10.0 mi South 16.1 mph 21.9 mph N/A   Clear
1:35 PM 53.8 °F - 33.1 °F 45% 29.90 in 10.0 mi South 16.1 mph 21.9 mph N/A   Clear
1:55 PM 54.5 °F - 33.4 °F 45% 29.89 in 10.0 mi South 13.8 mph 19.6 mph N/A   Clear
2:15 PM 52.7 °F - 34.3 °F 50% 29.87 in 10.0 mi Calm Calm - N/A   Clear
2:35 PM 56.5 °F - 34.0 °F 43% 29.86 in 10.0 mi SSE 9.2 mph - N/A   Clear
2:55 PM 59.0 °F - 32.5 °F 37% 29.85 in 10.0 mi South 16.1 mph - N/A   Clear
3:15 PM 58.5 °F - 32.0 °F 37% 29.85 in 10.0 mi South 16.1 mph 20.7 mph N/A   Scattered Clouds
3:35 PM 58.6 °F - 32.9 °F 38% 29.85 in 10.0 mi South 16.1 mph - N/A   Clear
3:55 PM 58.5 °F - 33.4 °F 39% 29.85 in 10.0 mi South 10.4 mph - N/A   Clear
4:15 PM 56.8 °F - 34.2 °F 42% 29.85 in 10.0 mi Calm Calm - N/A   Clear
4:35 PM 57.0 °F - 34.9 °F 43% 29.84 in 10.0 mi Calm Calm - N/A   Clear
4:55 PM 55.2 °F - 35.4 °F 47% 29.84 in 10.0 mi Calm Calm - N/A   Scattered Clouds
5:15 PM 54.5 °F - 35.8 °F 49% 29.84 in 10.0 mi Calm Calm - N/A   Mostly Cloudy
5:35 PM 53.6 °F - 36.1 °F 52% 29.84 in 10.0 mi Calm Calm - N/A   Overcast
5:55 PM 54.1 °F - 36.7 °F 52% 29.84 in 10.0 mi Calm Calm - N/A   Overcast
6:15 PM 51.1 °F - 36.7 °F 58% 29.84 in 10.0 mi Calm Calm - N/A   Mostly Cloudy
6:35 PM 50.0 °F - 36.5 °F 60% 29.84 in 10.0 mi Calm Calm - N/A   Scattered Clouds
6:55 PM 51.8 °F - 37.4 °F 58% 29.84 in 10.0 mi Calm Calm - N/A   Overcast
7:15 PM 49.3 °F - 37.6 °F 64% 29.85 in 10.0 mi Calm Calm - N/A   Mostly Cloudy
7:35 PM 50.2 °F - 38.3 °F 64% 29.86 in 10.0 mi Calm Calm - N/A   Overcast
7:55 PM 49.1 °F - 38.3 °F 66% 29.86 in 10.0 mi Calm Calm - N/A   Overcast
8:15 PM 48.4 °F - 38.3 °F 68% 29.86 in 10.0 mi Calm Calm - N/A   Overcast
8:35 PM 48.4 °F - 38.5 °F 69% 29.86 in 10.0 mi Calm Calm - N/A   Overcast
8:55 PM 46.6 °F - 38.1 °F 72% 29.86 in 10.0 mi Calm Calm - N/A   Mostly Cloudy
9:15 PM 48.0 °F - 38.7 °F 70% 29.86 in 10.0 mi Calm Calm - N/A   Mostly Cloudy
9:35 PM 47.8 °F - 38.7 °F 70% 29.86 in 10.0 mi Calm Calm - N/A   Mostly Cloudy
9:55 PM 47.8 °F - 39.2 °F 72% 29.86 in 10.0 mi Calm Calm - N/A   Mostly Cloudy
10:15 PM 49.1 °F - 39.9 °F 71% 29.86 in 10.0 mi Calm Calm - N/A   Overcast
10:35 PM 48.0 °F - 40.1 °F 74% 29.86 in 10.0 mi Calm Calm - N/A   Overcast
10:55 PM 47.3 °F - 40.5 °F 77% 29.86 in 10.0 mi Calm Calm - N/A   Overcast
11:15 PM 47.3 °F - 41.4 °F 80% 29.86 in 10.0 mi Calm Calm - N/A Rain Rain
11:35 PM 46.9 °F - 41.9 °F 83% 29.86 in 10.0 mi Calm Calm - N/A   Overcast
11:55 PM 46.6 °F - 41.5 °F 83% 29.87 in 10.0 mi Calm Calm - N/A   Overcast